Location: La Bastide
(43.1661°N, 1.2755°E)
Time: 21:56:48
(UTC+00:00)

Cosmos 1980 Rocket - Pass Details

Date: 13 December 2025
Orbit: 830 x 847 km, 71.0° (Epoch: 21 January)

Event Time Altitude Azimuth Distance (km) Brightness Sun altitude
Rises 19:21:37 0° 252° (WSW) 3,390 6.4 -32.2°
Reaches altitude 10° 19:24:54 10° 271° (W) 2,456 5.5 -32.7°
Maximum altitude 19:28:38 18° 313° (NW) 1,958 4.5 -33.4°
Enters shadow 19:31:03 14° 343° (NNW) 2,178 4.5 -33.9°
